Location: Melbourne
(37.8120°S, 144.9677°E)
Time: 20:38:47
(UTC+11:00)

ISS - Visible Passes

Search period start: 22 October 2014 00:00
Search period end: 01 November 2014 00:00
Orbit: 413 x 416 km, 51.6° (Epoch: 21 October)

Date Brightness Start Highest point End Pass type
(mag) Time Alt. Az. Time Alt. Az. Time Alt. Az.
22 Oct -0.8 04:23:10 15° SSW 04:23:11 15° SSW 04:25:15 10° SSE visible
23 Oct -0.1 03:35:49 14° SSE 03:35:49 14° SSE 03:36:33 10° SSE visible
25 Oct 0.0 03:33:48 11° S 03:33:48 11° S 03:34:17 10° S visible
29 Oct -0.3 05:06:17 10° SSW 05:08:22 15° SSE 05:10:25 10° ESE visible
30 Oct 0.0 04:17:29 10° S 04:18:45 12° SSE 04:20:01 10° SE visible
31 Oct -1.0 05:03:41 10° SSW 05:06:39 27° SSE 05:09:36 10° E visible
